Date String (YYYY-MM-DD hh:mm:ss) UTC,Instrument flags,Ambient pressure (hPa),Sample flow (lpm),Bypass flow (lpm),Sample temperature (°C),Ambient temperature (°C),ASC tube jacket temperature (°C),LED temperature (°C),Box temperature (°C),Sample RH (%),Span deviation,Mass concentration (μg/m³),Mass concentration (μg/m³),Mass concentration (μg/m³)
DateTimeUTC,F1_M11,P_M11,Q1_M11,Q2_M11,T1_M11,T2_M11,T3_M11,T4_M11,T5_M11,U1_M11,ZSPAN_M11,X0_M11,X2_M11,X1_M11
2022-10-18 14:00:00,,0833.5,5.00,0.00,24.8,23.4,00.0,33.7,26.7,12.6,0000.0,0012.93,0005.33,0004.70
2022-10-18 14:01:00,,0833.5,4.99,0.00,24.9,23.4,00.0,33.7,26.7,12.7,0000.0,0012.75,0005.23,0004.58
2022-10-18 14:02:00,,0833.6,5.01,0.00,24.9,23.5,00.0,33.7,26.8,12.6,0000.0,0012.53,0005.09,0004.44
2022-10-18 14:03:00,,0833.5,4.99,0.00,24.8,23.5,00.0,33.7,26.7,12.6,0000.0,0012.14,0004.89,0004.26
2022-10-18 14:04:00,,0833.5,5.00,0.00,24.9,23.5,00.0,33.7,26.7,12.7,0000.0,0010.61,0004.69,0004.10
2022-10-18 14:05:00,,0833.5,5.01,0.00,24.9,23.5,00.0,33.7,26.7,13.0,0000.0,0010.09,0004.60,0004.03
2022-10-18 14:06:00,,0833.5,5.00,0.00,24.9,23.5,00.0,33.7,26.8,12.9,0000.0,0009.34,0004.58,0004.05
2022-10-18 14:07:00,,0833.5,5.00,0.00,24.9,23.5,00.0,33.7,26.8,13.1,0000.0,0008.71,0004.64,0004.08
2022-10-18 14:08:00,,0833.5,5.00,0.00,24.9,23.5,00.0,33.7,26.8,13.2,0000.0,0008.88,0004.68,0004.11
2022-10-18 14:09:00,,0833.6,5.00,0.00,24.9,23.5,00.0,33.7,26.8,13.2,0000.0,0008.89,0004.72,0004.19
2022-10-18 14:10:00,,0833.5,5.00,0.00,24.9,23.5,00.0,33.7,26.8,13.3,0000.0,0009.02,0004.79,0004.27
2022-10-18 14:11:00,,0833.6,5.00,0.00,24.9,23.5,00.0,33.7,26.8,13.2,0000.0,0009.30,0004.92,0004.34
2022-10-18 14:12:00,,0833.5,5.00,0.00,24.9,23.5,00.0,33.7,26.8,13.2,0000.0,0009.21,0004.96,0004.39
2022-10-18 14:13:00,,0833.6,5.00,0.00,24.9,23.5,00.0,33.7,26.8,13.3,0000.0,0009.25,0005.00,0004.43
2022-10-18 14:14:00,,0833.6,5.00,0.00,24.9,23.6,00.0,33.7,26.8,13.1,0000.0,0009.25,0005.03,0004.45
2022-10-18 14:15:00,,0833.6,5.00,0.00,24.9,23.6,00.0,33.7,26.8,14.0,0000.0,0009.39,0005.14,0004.55
2022-10-18 14:16:00,,0833.6,5.00,0.00,24.9,23.6,00.0,33.7,26.8,14.6,0000.0,0009.56,0005.25,0004.65
2022-10-18 14:17:00,,0833.6,5.00,0.00,24.9,23.6,00.0,33.7,26.9,15.7,0000.0,0010.01,0005.33,0004.68
2022-10-18 14:18:00,,0833.6,5.00,0.00,24.9,23.6,00.0,33.7,26.9,15.9,0000.0,0009.81,0005.37,0004.71
2022-10-18 14:19:00,,0833.6,5.00,0.00,25.0,23.7,00.0,33.7,26.9,16.2,0000.0,0009.54,0005.39,0004.72
2022-10-18 14:20:00,,0833.6,5.00,0.00,25.0,23.7,00.0,33.7,26.9,16.1,0000.0,0009.80,0005.46,0004.72
2022-10-18 14:21:00,,0833.6,5.01,0.00,25.0,23.7,00.0,33.8,26.9,15.4,0000.0,0010.26,0005.47,0004.71
2022-10-18 14:22:00,,0833.6,4.99,0.00,25.0,23.7,00.0,33.8,26.9,15.4,0000.0,0010.43,0005.43,0004.71
2022-10-18 14:23:00,,0833.6,5.02,0.00,25.0,23.7,00.0,33.8,26.9,15.7,0000.0,0011.24,0005.48,0004.73
2022-10-18 14:24:00,,0833.6,4.99,0.00,25.0,23.8,00.0,33.8,26.9,15.6,0000.0,0011.44,0005.52,0004.75
2022-10-18 14:25:00,,0833.7,5.01,0.00,25.0,23.8,00.0,33.8,26.9,15.8,0000.0,0011.85,0005.54,0004.78
2022-10-18 14:26:00,,0833.7,5.00,0.00,25.0,23.8,00.0,33.8,26.9,15.8,0000.0,0012.06,0005.50,0004.74
2022-10-18 14:27:00,,0833.7,4.99,0.00,25.0,23.8,00.0,33.8,27.0,15.9,0000.0,0012.09,0005.48,0004.69
2022-10-18 14:28:00,,0833.7,5.02,0.00,25.0,23.8,00.0,33.8,27.0,16.0,0000.0,0011.77,0005.45,0004.66
2022-10-18 14:29:00,,0833.7,5.00,0.00,25.1,23.8,00.0,33.8,27.0,15.9,0000.0,0011.75,0005.43,0004.64
2022-10-18 14:30:00,,0833.8,5.00,0.00,25.1,23.8,00.0,33.8,27.0,15.8,0000.0,0013.11,0005.45,0004.65
2022-10-18 14:31:00,,0833.8,5.00,0.00,25.1,23.9,00.0,33.9,27.0,15.8,0000.0,0013.40,0005.44,0004.65
2022-10-18 14:32:00,,0833.8,4.99,0.00,25.1,23.9,00.0,33.9,27.0,15.6,0000.0,0014.06,0005.50,0004.70
2022-10-18 14:33:00,,0833.8,5.02,0.00,25.1,23.9,00.0,33.9,27.0,15.7,0000.0,0015.34,0005.57,0004.74
2022-10-18 14:34:00,,0833.9,4.99,0.00,25.1,23.9,00.0,33.9,27.1,15.1,0000.0,0014.76,0005.65,0004.83
2022-10-18 14:35:00,,0833.9,5.01,0.00,25.1,23.9,00.0,33.9,27.1,15.0,0000.0,0015.79,0005.79,0004.96
2022-10-18 14:36:00,,0833.9,5.00,0.00,25.1,23.9,00.0,33.9,27.1,15.0,0000.0,0016.13,0005.98,0005.10
2022-10-18 14:37:00,,0833.9,5.00,0.00,25.2,24.0,00.0,33.9,27.1,15.1,0000.0,0016.94,0006.10,0005.20
2022-10-18 14:38:00,,0833.9,5.00,0.00,25.2,24.0,00.0,33.9,27.1,15.0,0000.0,0017.57,0006.21,0005.30
2022-10-18 14:39:00,,0834.0,5.00,0.00,25.2,24.0,00.0,33.9,27.1,15.2,0000.0,0018.93,0006.35,0005.39
2022-10-18 14:40:00,,0834.0,5.01,0.00,25.2,24.0,00.0,33.9,27.1,15.4,0000.0,0019.16,0006.42,0005.45
2022-10-18 14:41:00,,0834.0,4.99,0.00,25.2,24.0,00.0,34.0,27.1,15.3,0000.0,0018.19,0006.40,0005.48
2022-10-18 14:42:00,,0834.0,4.99,0.00,25.2,24.0,00.0,34.0,27.1,15.2,0000.0,0018.04,0006.41,0005.51
2022-10-18 14:43:00,,0834.0,5.01,0.00,25.2,24.1,00.0,34.0,27.2,15.6,0000.0,0017.80,0006.39,0005.52
2022-10-18 14:44:00,,0834.0,5.00,0.00,25.2,24.1,00.0,34.0,27.2,16.1,0000.0,0016.33,0006.37,0005.50
2022-10-18 14:45:00,,0834.0,4.99,0.00,25.3,24.1,00.0,34.0,27.2,16.1,0000.0,0016.84,0006.29,0005.42
2022-10-18 14:46:00,,0834.1,5.00,0.00,25.3,24.1,00.0,34.0,27.2,16.2,0000.0,0016.07,0006.20,0005.30
2022-10-18 14:47:00,,0834.1,5.01,0.00,25.3,24.1,00.0,34.0,27.2,16.5,0000.0,0015.48,0006.08,0005.18
2022-10-18 14:48:00,,0834.1,5.01,0.00,25.3,24.1,00.0,34.0,27.2,16.4,0000.0,0014.72,0006.00,0005.12
2022-10-18 14:49:00,,0834.1,4.99,0.00,25.3,24.1,00.0,34.1,27.3,16.5,0000.0,0014.29,0005.93,0005.04
2022-10-18 14:50:00,,0834.1,5.01,0.00,25.3,24.2,00.0,34.1,27.3,17.5,0000.0,0013.95,0005.82,0004.96
2022-10-18 14:51:00,,0834.1,4.98,0.00,25.3,24.2,00.0,34.1,27.3,17.4,0000.0,0013.40,0005.75,0004.91
2022-10-18 14:52:00,,0834.1,5.02,0.00,25.4,24.2,00.0,34.1,27.3,17.1,0000.0,0013.00,0005.76,0004.90
2022-10-18 14:53:00,,0834.0,5.00,0.00,25.4,24.2,00.0,34.1,27.3,17.1,0000.0,0012.76,0005.78,0004.89
2022-10-18 14:54:00,,0834.1,5.00,0.00,25.4,24.2,00.0,34.1,27.3,17.3,0000.0,0012.08,0005.78,0004.85
2022-10-18 14:55:00,,0834.1,4.99,0.00,25.4,24.2,00.0,34.1,27.3,17.5,0000.0,0012.05,0005.74,0004.82
2022-10-18 14:56:00,,0834.1,4.99,0.00,25.4,24.2,00.0,34.1,27.3,16.7,0000.0,0012.02,0005.73,0004.83
2022-10-18 14:57:00,,0834.1,5.00,0.00,25.4,24.2,00.0,34.2,27.3,16.1,0000.0,0011.96,0005.71,0004.85
2022-10-18 14:58:00,,0834.1,5.00,0.00,25.4,24.3,00.0,34.2,27.4,16.1,0000.0,0011.97,0005.72,0004.89
2022-10-18 14:59:00,,0834.0,4.99,0.00,25.4,24.3,00.0,34.2,27.4,15.8,0001.9,0012.01,0005.73,0004.91
